| time (UTC) | temp C | wind direction | speed KPH | gust KPH | rain 1hr cm | rain 24hr cm | rain mn cm | humidity % | barometer mb |
| 20260902230108 | 21 | 68 | 6.4 | 12.9 | 0.00 | 0.00 | 0.00 | 54 | 1027.0 |
| 20260902224612 | 22 | 89 | 6.4 | 11.3 | 0.00 | 0.00 | 0.00 | 54 | 1026.9 |
| 20260902223107 | 22 | 98 | 4.8 | 11.3 | 0.00 | 0.00 | 0.00 | 54 | 1026.7 |
| 20260902221609 | 22 | 72 | 3.2 | 6.4 | 0.00 | 0.00 | 0.00 | 53 | 1026.7 |
| 20260902220113 | 22 | 111 | 1.6 | 9.7 | 0.00 | 0.00 | 0.00 | 52 | 1026.9 |
| 20260902214603 | 22 | 60 | 3.2 | 8.0 | 0.00 | 0.00 | 0.00 | 50 | 1026.7 |
| 20260902213129 | 22 | 84 | 3.2 | 8.0 | 0.00 | 0.00 | 0.00 | 47 | 1026.6 |
| 20260902211605 | 22 | 107 | 3.2 | 4.8 | 0.00 | 0.00 | 0.00 | 42 | 1026.6 |
| 20260902210104 | 22 | 101 | 0.0 | 3.2 | 0.00 | 0.00 | 0.00 | 35 | 1026.6 |
| 20260902204606 | 22 | 0 | 1.6 | 14.5 | 0.00 | 0.00 | 0.00 | 34 | 1026.5 |
| 20260902203108 | 22 | 54 | 0.0 | 3.2 | 0.00 | 0.00 | 0.00 | 36 | 1026.3 |
| 20260902201608 | 23 | 238 | 1.6 | 9.7 | 0.00 | 0.00 | 0.00 | 35 | 1026.0 |
| 20260902200136 | 24 | 0 | 1.6 | 4.8 | 0.00 | 0.00 | 0.00 | 31 | 1025.9 |
| 20260902194603 | 25 | 328 | 0.0 | 1.6 | 0.00 | 0.00 | 0.00 | 31 | 1025.8 |
| 20260902193106 | 26 | 0 | 0.0 | 0.0 | 0.00 | 0.00 | 0.00 | 30 | 1025.3 |
| 20260902191614 | 27 | 146 | 0.0 | 3.2 | 0.00 | 0.00 | 0.00 | 28 | 1025.2 |
| 20260902190116 | 27 | 167 | 1.6 | 1.6 | 0.00 | 0.00 | 0.00 | 27 | 1024.9 |
| 20260902184657 | 28 | 0 | 1.6 | 4.8 | 0.00 | 0.00 | 0.00 | 26 | 1024.8 |
| 20260902183118 | 30 | 217 | 4.8 | 8.0 | 0.00 | 0.00 | 0.00 | 25 | 1024.7 |
| 20260902181605 | 31 | 200 | 3.2 | 8.0 | 0.00 | 0.00 | 0.00 | 23 | 1024.7 |
| 20260902180131 | 31 | 264 | 4.8 | 17.7 | 0.00 | 0.00 | 0.00 | 22 | 1024.6 |
| 20260902174611 | 31 | 233 | 8.0 | 17.7 | 0.00 | 0.00 | 0.00 | 22 | 1024.5 |
| 20260902173103 | 31 | 239 | 8.0 | 19.3 | 0.00 | 0.00 | 0.00 | 22 | 1024.5 |
| 20260902171608 | 32 | 252 | 8.0 | 19.3 | 0.00 | 0.00 | 0.00 | 21 | 1024.4 |
| 20260902170118 | 32 | 260 | 9.7 | 20.9 | 0.00 | 0.00 | 0.00 | 22 | 1024.3 |
| 20260902164621 | 32 | 236 | 9.7 | 19.3 | 0.00 | 0.00 | 0.00 | 22 | 1024.3 |
| 20260902163103 | 32 | 259 | 12.9 | 24.1 | 0.00 | 0.00 | 0.00 | 23 | 1024.3 |
| 20260902161600 | 32 | 203 | 9.7 | 20.9 | 0.00 | 0.00 | 0.00 | 22 | 1024.4 |
| 20260902160108 | 32 | 259 | 8.0 | 20.9 | 0.00 | 0.00 | 0.00 | 23 | 1024.5 |
| 20260902154615 | 32 | 257 | 11.3 | 19.3 | 0.00 | 0.00 | 0.00 | 21 | 1024.6 |
| 20260902153102 | 32 | 205 | 12.9 | 27.4 | 0.00 | 0.00 | 0.00 | 20 | 1024.6 |
| 20260902151607 | 32 | 260 | 6.4 | 25.7 | 0.00 | 0.00 | 0.00 | 21 | 1024.7 |
| 20260902150105 | 31 | 285 | 9.7 | 17.7 | 0.00 | 0.00 | 0.00 | 20 | 1024.7 |
| 20260902144604 | 31 | 269 | 12.9 | 27.4 | 0.00 | 0.00 | 0.00 | 20 | 1024.8 |
| 20260902143103 | 31 | 246 | 16.1 | 30.6 | 0.00 | 0.00 | 0.00 | 21 | 1024.8 |
| 20260902141615 | 31 | 283 | 9.7 | 25.7 | 0.00 | 0.00 | 0.00 | 20 | 1024.8 |
| 20260902140105 | 31 | 238 | 11.3 | 22.5 | 0.00 | 0.00 | 0.00 | 20 | 1024.9 |
| 20260902134608 | 31 | 248 | 14.5 | 25.7 | 0.00 | 0.00 | 0.00 | 20 | 1025.0 |
| 20260902133104 | 31 | 292 | 11.3 | 24.1 | 0.00 | 0.00 | 0.00 | 21 | 1025.0 |
| 20260902131608 | 31 | 277 | 11.3 | 20.9 | 0.00 | 0.00 | 0.00 | 25 | 1025.1 |
| 20260902124604 | 31 | 225 | 9.7 | 19.3 | 0.00 | 0.00 | 0.00 | 25 | 1025.2 |
| 20260902123109 | 30 | 247 | 6.4 | 20.9 | 0.00 | 0.00 | 0.00 | 26 | 1025.3 |
| 20260902121606 | 30 | 233 | 9.7 | 24.1 | 0.00 | 0.00 | 0.00 | 26 | 1025.4 |
| 20260902114606 | 29 | 277 | 11.3 | 22.5 | 0.00 | 0.00 | 0.00 | 27 | 1025.6 |
| 20260902113112 | 29 | 270 | 12.9 | 20.9 | 0.00 | 0.00 | 0.00 | 28 | 1025.8 |
| 20260902111604 | 29 | 245 | 8.0 | 16.1 | 0.00 | 0.00 | 0.00 | 30 | 1025.9 |
| 20260902110101 | 28 | 169 | 3.2 | 19.3 | 0.00 | 0.00 | 0.00 | 30 | 1025.9 |
| 20260902104602 | 28 | 280 | 6.4 | 19.3 | 0.00 | 0.00 | 0.00 | 29 | 1026.0 |
| 20260902103104 | 28 | 263 | 1.6 | 11.3 | 0.00 | 0.00 | 0.00 | 32 | 1026.0 |
| 20260902101623 | 27 | 264 | 6.4 | 12.9 | 0.00 | 0.00 | 0.00 | 35 | 1026.1 |
| 20260902100100 | 26 | 242 | 3.2 | 16.1 | 0.00 | 0.00 | 0.00 | 36 | 1026.2 |
| 20260902094600 | 26 | 221 | 6.4 | 14.5 | 0.00 | 0.00 | 0.00 | 39 | 1026.2 |
| 20260902093101 | 25 | 268 | 3.2 | 9.7 | 0.00 | 0.00 | 0.00 | 44 | 1026.1 |
| 20260902091605 | 25 | 189 | 4.8 | 9.7 | 0.00 | 0.00 | 0.00 | 43 | 1026.0 |
| 20260902090127 | 24 | 0 | 0.0 | 1.6 | 0.00 | 0.00 | 0.00 | 55 | 1025.8 |
| 20260902084604 | 23 | 44 | 0.0 | 1.6 | 0.00 | 0.00 | 0.00 | 62 | 1025.7 |
| 20260902083110 | 21 | 0 | 0.0 | 1.6 | 0.00 | 0.00 | 0.00 | 65 | 1025.5 |
| 20260902081608 | 20 | 0 | 1.6 | 4.8 | 0.00 | 0.00 | 0.00 | 68 | 1025.6 |
| 20260902080110 | 18 | 51 | 1.6 | 6.4 | 0.00 | 0.00 | 0.00 | 70 | 1025.5 |
| 20260902074601 | 17 | 47 | 3.2 | 6.4 | 0.00 | 0.00 | 0.00 | 71 | 1025.4 |
| 20260902073101 | 16 | 80 | 3.2 | 3.2 | 0.00 | 0.00 | 0.00 | 73 | 1025.5 |
| 20260902071605 | 15 | 56 | 1.6 | 4.8 | 0.00 | 0.00 | 0.00 | 73 | 1025.3 |
| 20260902070109 | 15 | 0 | 1.6 | 4.8 | 0.00 | 0.00 | 0.00 | 72 | 1025.2 |
| 20260902064607 | 14 | 0 | 0.0 | 0.0 | 0.00 | 0.00 | 0.00 | 72 | 1025.1 |
| 20260902063102 | 13 | 0 | 0.0 | 1.6 | 0.00 | 0.00 | 0.00 | 75 | 1025.0 |
| 20260902061623 | 13 | 98 | 0.0 | 0.0 | 0.00 | 0.00 | 0.00 | 74 | 1024.9 |
| 20260902060106 | 12 | 0 | 0.0 | 0.0 | 0.00 | 0.00 | 0.00 | 76 | 1024.9 |
| 20260902054605 | 12 | 0 | 0.0 | 1.6 | 0.00 | 0.00 | 0.00 | 77 | 1024.8 |
| 20260902053105 | 12 | 0 | 0.0 | 1.6 | 0.00 | 0.00 | 0.00 | 77 | 1024.8 |
| 20260902051603 | 12 | 79 | 0.0 | 3.2 | 0.00 | 0.00 | 0.00 | 76 | 1024.6 |
| 20260902050107 | 12 | 73 | 0.0 | 3.2 | 0.00 | 0.00 | 0.00 | 76 | 1024.5 |
| 20260902044610 | 12 | 0 | 0.0 | 0.0 | 0.00 | 0.00 | 0.00 | 74 | 1024.4 |
| 20260902043104 | 12 | 0 | 0.0 | 1.6 | 0.00 | 0.00 | 0.00 | 74 | 1024.2 |
| 20260902041608 | 12 | 0 | 0.0 | 1.6 | 0.00 | 0.00 | 0.00 | 73 | 1024.3 |
| 20260902040104 | 12 | 104 | 0.0 | 3.2 | 0.00 | 0.00 | 0.00 | 74 | 1024.2 |
| 20260902034602 | 13 | 0 | 0.0 | 1.6 | 0.00 | 0.00 | 0.00 | 72 | 1024.2 |
| 20260902033113 | 13 | 0 | 0.0 | 1.6 | 0.00 | 0.00 | 0.00 | 70 | 1024.4 |
| 20260902031602 | 13 | 0 | 0.0 | 1.6 | 0.00 | 0.00 | 0.00 | 69 | 1024.2 |
| 20260902030118 | 13 | 0 | 0.0 | 0.0 | 0.00 | 0.00 | 0.00 | 69 | 1024.1 |
| 20260902024559 | 14 | 0 | 0.0 | 4.8 | 0.00 | 0.00 | 0.00 | 70 | 1024.0 |
| 20260902023114 | 14 | 64 | 0.0 | 3.2 | 0.00 | 0.00 | 0.00 | 69 | 1024.0 |
| 20260902021619 | 14 | 0 | 0.0 | 1.6 | 0.00 | 0.00 | 0.00 | 65 | 1023.9 |
| 20260902020103 | 15 | 0 | 0.0 | 1.6 | 0.00 | 0.00 | 0.00 | 66 | 1024.0 |
| 20260902014600 | 15 | 96 | 1.6 | 4.8 | 0.00 | 0.00 | 0.00 | 66 | 1024.1 |
| 20260902013100 | 15 | 0 | 0.0 | 0.0 | 0.00 | 0.00 | 0.00 | 61 | 1024.0 |
| 20260902011605 | 15 | 0 | 0.0 | 0.0 | 0.00 | 0.00 | 0.00 | 60 | 1023.9 |
| 20260902004609 | 15 | 0 | 0.0 | 1.6 | 0.00 | 0.00 | 0.00 | 60 | 1024.2 |
| 20260902003104 | 16 | 9 | 0.0 | 3.2 | 0.00 | 0.00 | 0.00 | 56 | 1024.2 |
| 20260902001605 | 16 | 0 | 0.0 | 0.0 | 0.00 | 0.00 | 0.00 | 56 | 1024.1 |
| 20260902000106 | 17 | 0 | 0.0 | 1.6 | 0.00 | 0.00 | 0.00 | 54 | 1024.2 |
| 20260901234616 | 17 | 0 | 0.0 | 1.6 | 0.00 | 0.00 | 0.00 | 51 | 1024.1 |
| 20260901233105 | 17 | 0 | 0.0 | 4.8 | 0.00 | 0.00 | 0.00 | 51 | 1024.2 |
| 20260901231603 | 17 | 120 | 0.0 | 1.6 | 0.00 | 0.00 | 0.00 | 50 | 1024.3 |